Location: Unspecified
(48.8656°N, 0.0000°E)
Time: 03:41:10
(UTC+00:00)

Vanguard 1 Rocket - Pass Details

Date: 23 June 2019
Orbit: 651 x 4225 km, 34.3° (Epoch: 16 July)

Event Time Altitude Azimuth Distance (km) Brightness Sun altitude
Rises 16:14:12 0° 224° (SW) 8,045 12.8 35.0°
Reaches altitude 10° 16:21:09 10° 217° (SW) 6,576 12.4 33.9°
Maximum altitude 16:36:34 31° 165° (SSE) 3,642 10.6 31.3°
Drops below altitude 10° 16:45:53 10° 108° (ESE) 3,955 10.2 29.8°
Sets 16:48:50 0° 97° (E) 4,556 10.4 29.3°
